sat.trackr.live / text

‹ back to catalog

STARLINK-1478

NORAD 45755 · 2020-038AB

PAYLOAD ACTIVE UNKNOWN

§ Identity

Operator
Country
US
Launch date
2020-06-13
Launch site
AFETR
Launch vehicle
Mass (kg)
RCS (m²)

Purposes: comms

External: N2YO · Heavens-Above · Gunter

§ Orbital elements

Epoch: 2026-09-20T03:18:10.228896Z

Period
90.62 min
Inclination
53.0392°
Eccentricity
0.0005234
Mean motion
15.89034581 rev/d
Perigee alt
301.5 km
Apogee alt
308.5 km
Semi-major
6,683.1 km
B*
4.6194e-4
RAAN
315.2419°
Arg perigee
0.4693°
Mean anomaly
359.6336°
Rev number
34,729

§ Raw data

STARLINK-14781 45755U 20038AB  26263.13761839  .00136457  00000+0  46194-3 0  99982 45755  53.0392 315.2419 0005234   0.4693 359.6336 15.89034581347295

JSON: /api/v1/satellites/45755 · /tle

For live sub-satellite position, see the globe view (requires WebGL).

§ Visibility from observer

Set your observer location to see the next 7 days of passes ≥ 10°. The values pass through the URL so the page stays shareable.

No JS? Fill the form by hand. The geolocation button needs JavaScript.